Voltar ao catálogo

SL-8 R/B

AtivoPO
NORAD 27819·ROCKET BODY·🇷🇺 Russia

Lançado Jun 4, 2003 de Plesetsk Cosmodrome

Loading…

Próximas Passagens (próximas 24 horas)

TLE

AtualizadoSource: Space-Track

Época: Sep 14, 2026, 08:39 UTC

1 27819U 03023B   26257.36107362  .00000125  00000-0  11528-3 0  9993
2 27819  82.9467  48.4085 0046660  15.6297 358.0301 13.74551310167482

Acompanhe SL-8 R/B em tempo real com AllMySat

Download on the App Store